SEASAT 1

Satellite information

Favourite Embed

Satellite Type and Status

PAYLOADIN ORBIT

Key statistics

Satellite SEASAT 1 at a glance.

Uptime

17286

Days in orbit

Revolutions

≈ 14.5

Per day

Orbit

SSO

Sun Synchronous Orbit

Inclination

108.0

Latest

Satellite identification and parameters

Extended collection of information and parameters for SEASAT 1.

Object identification

Identified? True

Debris? False

Object name: SEASAT 1

International designator: 1978-064A

Object number (NORAD): 10967

Object ID (CCSDS): 10967

Country: UNITED STATES OF AMERICA (US)

Current information (Y/N): Y

RCS size: LARGE

Orbital parameters

Period: 99.587 minutes

Inclination: 108.0046 deg

SMA: 7116.95 km

Apoapsis: 740.751 km

Periapsis: 736.878 km

RAAN: 198.0069 deg

Eccentricy: 0.00027211

Argument of periapsis: 265.3725 deg

Mean anomaly: 94.711 deg

Mean motion: 14.45978707 rev/day

Mean motion (dot): 0.00000614 rev/day2

B* drag term: 0.00021068193 1/REarth

Two-line elements (TLE)

Creation date: Oct. 24, 2025, 2:48 a.m.

Reference frame: TEME

Reference center: EARTH

Epoch: Oct. 23, 2025, 3:58 p.m. UTC

TLE line 0: 0 SEASAT 1

TLE line 1: 1 10967U 78064A 25296.66588718 .00000614 00000-0 21068-3 0 9992

TLE line 2: 2 10967 108.0046 198.0069 0002721 265.3725 94.7110 14.45978707486708

Live tracking on map

Real-time ground track for satellite SEASAT 1.

In-orbit conjunctions

A list of the most updated potential collisions computed for object SEASAT 1.

Target Orbit TCA Probability of collision Miss distance Type
IRIDIUM 33 DEB LEO 2025-10-20 12:09:51 0.0002664679 791.0 (m) DEBRIS
COSMOS 2251 DEB LEO 2025-09-02 23:58:45 0.0005079171 539.0 (m) DEBRIS
COSMOS 2251 DEB LEO 2025-07-01 16:03:57 0.001087844 128.0 (m) DEBRIS
THORAD AGENA D DEB LEO 2025-04-30 21:56:37 0.0001303807 426.0 (m) DEBRIS
CZ-6A DEB LEO 2025-04-26 02:31:16 0.000239415 312.0 (m) DEBRIS

Associated space launch

Earth observation radar satellite

SEASAT 1 was lifted into orbit during the mission ‘Atlas F/Agena D | Seasat 1’, on board a Atlas F/Agena D space rocket.

The launch took place on June 27, 1978, 1:12 a.m. from Space Launch Complex 3W.

For more information about the launch, click the button.

Launch to space Atlas F/Agena D | Seasat 1
Atlas F/Agena D | Seasat 1

Agency: N/A

Status: Launch Successful

Launch date: June 27, 1978, 1:12 a.m. UTC

Rocket: Atlas F/Agena D

Launch pad: Space Launch Complex 3W

Location: Vandenberg SFB, CA, USA

...

Latest news about this satellite

There are no fresh news available about this satellite. Check back as we update our databases every day.


Newsletter sign-up

Weekly statistics, charts and insights to help you stay on top of the space industry.